Time,TemperatureF,DewpointF,PressureIn,WindDirection,WindDirectionDegrees,WindSpeedMPH,WindSpeedGustMPH,Humidity,HourlyPrecipIn,Conditions,Clouds,dailyrainin,SoftwareType,DateUTC
2013-04-15 06:39:00,29.2,29.0,30.33,NW,308,0.0,0.0,99,0.00,,,0.00,Wunderground v.1.15,2013-04-15 10:39:00,
2013-04-15 06:40:00,29.2,29.0,30.33,NW,308,0.0,0.0,99,0.00,,,0.00,Wunderground v.1.15,2013-04-15 10:40:00,
2013-04-15 06:41:00,29.3,29.1,30.33,NW,308,0.0,0.0,99,0.00,,,0.00,Wunderground v.1.15,2013-04-15 10:41:00,
2013-04-15 06:47:00,29.8,29.6,30.34,NW,308,0.0,0.0,99,0.00,,,0.00,Wunderground v.1.15,2013-04-15 10:47:00,
2013-04-15 06:50:00,30.0,29.8,30.34,NW,308,0.0,0.0,99,0.00,,,0.00,Wunderground v.1.15,2013-04-15 10:50:00,
2013-04-15 06:55:00,30.4,30.2,30.34,NW,308,0.0,0.0,99,0.00,,,0.00,Wunderground v.1.15,2013-04-15 10:55:00,
2013-04-15 07:00:00,31.1,31.1,30.35,NW,308,0.0,0.0,100,0.00,,,0.00,Wunderground v.1.15,2013-04-15 11:00:00,
2013-04-15 07:06:00,31.6,31.4,30.35,NW,308,0.0,0.0,99,0.00,,,0.00,Wunderground v.1.15,2013-04-15 11:06:00,
2013-04-15 07:11:00,32.0,31.8,30.35,NW,308,0.0,0.0,99,0.00,,,0.00,Wunderground v.1.15,2013-04-15 11:11:00,
2013-04-15 07:16:00,32.4,32.2,30.35,NW,308,0.0,0.0,99,0.00,,,0.00,Wunderground v.1.15,2013-04-15 11:16:00,
2013-04-15 07:22:00,32.6,32.4,30.35,NW,308,0.0,0.0,99,0.00,,,0.00,Wunderground v.1.15,2013-04-15 11:22:00,
2013-04-15 07:27:00,33.2,33.0,30.35,NW,308,0.0,0.0,99,0.00,,,0.00,Wunderground v.1.15,2013-04-15 11:27:00,
2013-04-15 07:32:00,34.2,33.9,30.36,NW,308,0.0,0.0,99,0.00,,,0.00,Wunderground v.1.15,2013-04-15 11:32:00,
2013-04-15 07:38:00,35.5,35.5,30.36,NW,308,0.0,0.0,100,0.00,,,0.00,Wunderground v.1.15,2013-04-15 11:38:00,
2013-04-15 07:43:00,36.2,35.9,30.36,NW,308,0.0,0.0,99,0.00,,,0.00,Wunderground v.1.15,2013-04-15 11:43:00,
2013-04-15 07:48:00,36.8,36.5,30.36,NW,308,0.0,0.0,99,0.00,,,0.00,Wunderground v.1.15,2013-04-15 11:48:00,
2013-04-15 07:53:00,37.3,36.8,30.37,SW,230,0.0,0.0,98,0.00,,,0.00,Wunderground v.1.15,2013-04-15 11:53:00,
2013-04-15 07:59:00,38.2,37.4,30.37,WSW,251,0.0,0.0,97,0.00,,,0.00,Wunderground v.1.15,2013-04-15 11:59:00,
2013-04-15 08:05:00,39.2,37.6,30.37,WSW,250,0.0,0.0,94,0.00,,,0.00,Wunderground v.1.15,2013-04-15 12:05:00,
2013-04-15 08:11:00,40.1,37.1,30.37,West,264,0.0,1.0,89,0.00,,,0.00,Wunderground v.1.15,2013-04-15 12:11:00,
2013-04-15 08:16:00,40.4,36.2,30.38,NW,317,0.0,2.0,85,0.00,,,0.00,Wunderground v.1.15,2013-04-15 12:16:00,
2013-04-15 08:22:00,40.9,36.4,30.38,NW,320,1.0,2.0,84,0.00,,,0.00,Wunderground v.1.15,2013-04-15 12:22:00,
2013-04-15 08:27:00,41.3,36.2,30.38,NW,320,1.0,2.0,82,0.00,,,0.00,Wunderground v.1.15,2013-04-15 12:27:00,
2013-04-15 08:32:00,42.0,37.5,30.38,NNW,337,1.0,2.0,84,0.00,,,0.00,Wunderground v.1.15,2013-04-15 12:32:00,
2013-04-15 08:38:00,42.5,36.8,30.38,NW,318,1.0,4.0,80,0.00,,,0.00,Wunderground v.1.15,2013-04-15 12:38:00,
2013-04-15 08:44:00,42.6,36.2,30.38,NW,309,2.0,2.0,78,0.00,,,0.00,Wunderground v.1.15,2013-04-15 12:44:00,
2013-04-15 08:49:00,43.0,36.6,30.38,NNW,328,2.0,3.0,78,0.00,,,0.00,Wunderground v.1.15,2013-04-15 12:49:00,
2013-04-15 08:55:00,43.4,36.3,30.38,North,5,2.0,5.0,76,0.00,,,0.00,Wunderground v.1.15,2013-04-15 12:55:00,
2013-04-15 09:00:00,43.5,36.1,30.38,NNE,12,3.0,4.0,75,0.00,,,0.00,Wunderground v.1.15,2013-04-15 13:00:00,
2013-04-15 09:05:00,43.6,36.5,30.38,NNE,17,4.0,6.0,76,0.00,,,0.00,Wunderground v.1.15,2013-04-15 13:05:00,
2013-04-15 09:11:00,43.7,36.3,30.38,NNE,15,4.0,4.0,75,0.00,,,0.00,Wunderground v.1.15,2013-04-15 13:11:00,
2013-04-15 09:17:00,44.1,36.3,30.38,NE,43,3.0,7.0,74,0.00,,,0.00,Wunderground v.1.15,2013-04-15 13:17:00,
2013-04-15 09:22:00,44.2,36.1,30.38,NNE,26,4.0,5.0,73,0.00,,,0.00,Wunderground v.1.15,2013-04-15 13:22:00,
2013-04-15 09:27:00,44.2,36.1,30.38,NE,36,5.0,5.0,73,0.00,,,0.00,Wunderground v.1.15,2013-04-15 13:27:00,
2013-04-15 09:33:00,44.2,36.1,30.38,North,360,4.0,6.0,73,0.00,,,0.00,Wunderground v.1.15,2013-04-15 13:33:00,
2013-04-15 09:39:00,44.6,36.8,30.38,NNE,17,5.0,8.0,74,0.00,,,0.00,Wunderground v.1.15,2013-04-15 13:39:00,
2013-04-15 09:44:00,44.9,36.8,30.38,North,351,4.0,5.0,73,0.00,,,0.00,Wunderground v.1.15,2013-04-15 13:44:00,
2013-04-15 09:49:00,45.5,38.4,30.38,NNW,344,4.0,5.0,76,0.00,,,0.00,Wunderground v.1.15,2013-04-15 13:49:00,
2013-04-15 09:54:00,45.7,37.2,30.38,North,355,4.0,6.0,72,0.00,,,0.00,Wunderground v.1.15,2013-04-15 13:54:00,
2013-04-15 10:00:00,45.7,36.8,30.38,North,5,4.0,4.0,71,0.00,,,0.00,Wunderground v.1.15,2013-04-15 14:00:00,
2013-04-15 10:05:00,45.9,37.7,30.38,NNW,342,4.0,5.0,73,0.00,,,0.00,Wunderground v.1.15,2013-04-15 14:05:00,
2013-04-15 10:11:00,46.3,38.1,30.38,North,5,3.0,6.0,73,0.00,,,0.00,Wunderground v.1.15,2013-04-15 14:11:00,
2013-04-15 10:16:00,46.3,37.8,30.38,NNE,17,4.0,7.0,72,0.00,,,0.00,Wunderground v.1.15,2013-04-15 14:16:00,
2013-04-15 10:22:00,46.9,38.0,30.38,NNW,339,3.0,3.0,71,0.00,,,0.00,Wunderground v.1.15,2013-04-15 14:22:00,
2013-04-15 10:27:00,47.2,37.9,30.38,North,355,3.0,6.0,70,0.00,,,0.00,Wunderground v.1.15,2013-04-15 14:27:00,
2013-04-15 10:33:00,47.5,38.2,30.39,NNE,17,2.0,5.0,70,0.00,,,0.00,Wunderground v.1.15,2013-04-15 14:33:00,
2013-04-15 12:47:00,51.0,40.8,30.37,South,184,7.0,7.0,68,0.00,,,0.00,Wunderground v.1.15,2013-04-15 16:47:00,
2013-04-15 12:52:00,50.1,41.4,30.36,SE,142,7.0,11.0,72,0.00,,,0.00,Wunderground v.1.15,2013-04-15 16:52:00,
2013-04-15 12:57:00,49.9,41.2,30.36,SSE,166,7.0,9.0,72,0.00,,,0.00,Wunderground v.1.15,2013-04-15 16:57:00,
2013-04-15 13:02:00,49.6,40.9,30.36,South,178,7.0,7.0,72,0.00,,,0.00,Wunderground v.1.15,2013-04-15 17:02:00,
2013-04-15 13:08:00,50.3,42.0,30.36,SSE,155,6.0,9.0,73,0.00,,,0.00,Wunderground v.1.15,2013-04-15 17:08:00,
2013-04-15 13:14:00,49.9,41.2,30.36,SE,132,7.0,10.0,72,0.00,,,0.00,Wunderground v.1.15,2013-04-15 17:14:00,
2013-04-15 13:20:00,49.0,41.8,30.36,South,191,8.0,9.0,76,0.00,,,0.00,Wunderground v.1.15,2013-04-15 17:20:00,
2013-04-15 13:21:00,49.1,41.2,30.36,SE,146,8.0,9.0,74,0.00,,,0.00,Wunderground v.1.15,2013-04-15 17:21:00,
2013-04-15 13:22:00,49.1,40.8,30.36,South,178,8.0,9.0,73,0.00,,,0.00,Wunderground v.1.15,2013-04-15 17:22:00,
2013-04-15 13:24:00,49.1,40.8,30.36,SE,135,7.0,9.0,73,0.00,,,0.00,Wunderground v.1.15,2013-04-15 17:24:00,
2013-04-15 13:29:00,49.3,40.3,30.37,SE,136,7.0,12.0,71,0.00,,,0.00,Wunderground v.1.15,2013-04-15 17:29:00,
2013-04-15 13:30:00,49.2,40.2,30.37,SSE,165,7.0,8.0,71,0.00,,,0.00,Wunderground v.1.15,2013-04-15 17:30:00,
2013-04-15 13:31:00,49.1,40.1,30.36,SSE,163,8.0,8.0,71,0.00,,,0.00,Wunderground v.1.15,2013-04-15 17:31:00,
2013-04-15 13:36:00,49.3,41.4,30.36,ESE,120,8.0,11.0,74,0.00,,,0.00,Wunderground v.1.15,2013-04-15 17:36:00,
2013-04-15 13:42:00,49.9,42.3,30.36,South,169,7.0,9.0,75,0.00,,,0.00,Wunderground v.1.15,2013-04-15 17:42:00,
2013-04-15 13:47:00,49.5,41.9,30.36,SE,138,7.0,9.0,75,0.00,,,0.00,Wunderground v.1.15,2013-04-15 17:47:00,
2013-04-15 13:53:00,49.5,41.9,30.36,SE,137,8.0,9.0,75,0.00,,,0.00,Wunderground v.1.15,2013-04-15 17:53:00,
2013-04-15 13:58:00,49.4,41.8,30.37,East,96,8.0,15.0,75,0.00,,,0.00,Wunderground v.1.15,2013-04-15 17:58:00,
2013-04-15 14:03:00,49.3,41.7,30.37,ESE,123,7.0,11.0,75,0.00,,,0.00,Wunderground v.1.15,2013-04-15 18:03:00,
2013-04-15 14:09:00,48.8,41.2,30.37,South,171,8.0,11.0,75,0.00,,,0.00,Wunderground v.1.15,2013-04-15 18:09:00,
2013-04-15 14:14:00,48.6,40.7,30.37,South,184,8.0,9.0,74,0.00,,,0.00,Wunderground v.1.15,2013-04-15 18:14:00,
2013-04-15 14:20:00,49.0,42.1,30.37,ESE,117,7.0,8.0,77,0.00,,,0.00,Wunderground v.1.15,2013-04-15 18:20:00,
2013-04-15 14:25:00,49.3,41.0,30.37,SE,135,7.0,10.0,73,0.00,,,0.00,Wunderground v.1.15,2013-04-15 18:25:00,
2013-04-15 14:29:00,49.4,41.1,30.37,SE,140,7.0,10.0,73,0.00,,,0.00,Wunderground v.1.15,2013-04-15 18:29:00,
2013-04-15 14:30:00,49.5,41.9,30.37,ESE,115,7.0,10.0,75,0.00,,,0.00,Wunderground v.1.15,2013-04-15 18:30:00,
2013-04-15 14:31:00,49.4,41.1,30.37,SE,138,7.0,10.0,73,0.00,,,0.00,Wunderground v.1.15,2013-04-15 18:31:00,
2013-04-15 14:34:00,49.5,41.9,30.37,SSE,167,7.0,12.0,75,0.00,,,0.00,Wunderground v.1.15,2013-04-15 18:34:00,
2013-04-15 14:35:00,49.5,41.9,30.37,SSW,193,6.0,12.0,75,0.00,,,0.00,Wunderground v.1.15,2013-04-15 18:35:00,
2013-04-15 14:40:00,49.3,41.0,30.37,South,171,6.0,8.0,73,0.00,,,0.00,Wunderground v.1.15,2013-04-15 18:40:00,
2013-04-15 14:46:00,48.4,40.1,30.37,SSE,168,8.0,12.0,73,0.00,,,0.00,Wunderground v.1.15,2013-04-15 18:46:00,
2013-04-15 14:52:00,48.6,40.3,30.37,South,177,9.0,9.0,73,0.00,,,0.00,Wunderground v.1.15,2013-04-15 18:52:00,
2013-04-15 14:57:00,48.8,40.9,30.37,South,171,7.0,9.0,74,0.00,,,0.00,Wunderground v.1.15,2013-04-15 18:57:00,
2013-04-15 15:03:00,48.8,40.2,30.37,SSE,163,7.0,11.0,72,0.00,,,0.00,Wunderground v.1.15,2013-04-15 19:03:00,
2013-04-15 15:08:00,48.8,41.2,30.37,South,179,7.0,11.0,75,0.00,,,0.00,Wunderground v.1.15,2013-04-15 19:08:00,
2013-04-15 15:13:00,49.0,40.7,30.37,SE,126,7.0,9.0,73,0.00,,,0.00,Wunderground v.1.15,2013-04-15 19:13:00,
2013-04-15 15:19:00,49.2,39.8,30.37,SE,126,7.0,10.0,70,0.00,,,0.00,Wunderground v.1.15,2013-04-15 19:19:00,
2013-04-15 15:24:00,49.1,39.7,30.37,SSE,159,7.0,7.0,70,0.00,,,0.00,Wunderground v.1.15,2013-04-15 19:24:00,
2013-04-15 15:30:00,49.0,40.4,30.37,SE,126,7.0,10.0,72,0.00,,,0.00,Wunderground v.1.15,2013-04-15 19:30:00,
2013-04-15 15:35:00,48.5,39.5,30.37,South,184,7.0,10.0,71,0.00,,,0.00,Wunderground v.1.15,2013-04-15 19:35:00,
2013-04-15 15:40:00,48.9,39.9,30.37,SSE,153,7.0,7.0,71,0.00,,,0.00,Wunderground v.1.15,2013-04-15 19:40:00,
2013-04-15 15:45:00,48.8,39.4,30.37,South,177,7.0,11.0,70,0.00,,,0.00,Wunderground v.1.15,2013-04-15 19:45:00,
2013-04-15 15:50:00,48.2,38.9,30.37,SSE,161,7.0,7.0,70,0.00,,,0.00,Wunderground v.1.15,2013-04-15 19:50:00,
2013-04-15 15:56:00,47.8,38.8,30.37,South,176,8.0,12.0,71,0.00,,,0.00,Wunderground v.1.15,2013-04-15 19:56:00,
2013-04-15 15:58:00,47.8,39.6,30.37,SSE,164,7.0,12.0,73,0.00,,,0.00,Wunderground v.1.15,2013-04-15 19:58:00,
2013-04-15 15:59:00,47.8,39.2,30.37,SSW,200,7.0,12.0,72,0.00,,,0.00,Wunderground v.1.15,2013-04-15 19:59:00,
2013-04-15 16:02:00,47.5,38.9,30.37,South,177,8.0,9.0,72,0.00,,,0.00,Wunderground v.1.15,2013-04-15 20:02:00,
2013-04-15 16:05:00,47.3,39.4,30.37,SSE,153,7.0,11.0,74,0.00,,,0.00,Wunderground v.1.15,2013-04-15 20:05:00,
2013-04-15 16:06:00,47.3,39.4,30.37,South,186,7.0,11.0,74,0.00,,,0.00,Wunderground v.1.15,2013-04-15 20:06:00,
2013-04-15 16:07:00,47.3,39.4,30.37,South,173,7.0,11.0,74,0.00,,,0.00,Wunderground v.1.15,2013-04-15 20:07:00,
2013-04-15 16:10:00,47.3,39.4,30.37,SE,138,7.0,11.0,74,0.00,,,0.00,Wunderground v.1.15,2013-04-15 20:10:00,
2013-04-15 16:15:00,47.4,39.5,30.37,SSE,159,7.0,11.0,74,0.00,,,0.00,Wunderground v.1.15,2013-04-15 20:15:00,
2013-04-15 16:21:00,47.3,39.4,30.36,SSE,151,7.0,7.0,74,0.00,,,0.00,Wunderground v.1.15,2013-04-15 20:21:00,
2013-04-15 16:27:00,47.2,39.0,30.36,South,178,7.0,10.0,73,0.00,,,0.00,Wunderground v.1.15,2013-04-15 20:27:00,
2013-04-15 16:32:00,47.0,39.1,30.36,South,174,7.0,9.0,74,0.00,,,0.00,Wunderground v.1.15,2013-04-15 20:32:00,
2013-04-15 16:38:00,46.7,39.5,30.37,South,171,7.0,11.0,76,0.00,,,0.00,Wunderground v.1.15,2013-04-15 20:38:00,
2013-04-15 16:43:00,46.7,39.2,30.36,SW,219,7.0,7.0,75,0.00,,,0.00,Wunderground v.1.15,2013-04-15 20:43:00,
2013-04-15 16:48:00,46.8,39.3,30.36,SW,214,7.0,8.0,75,0.00,,,0.00,Wunderground v.1.15,2013-04-15 20:48:00,
2013-04-15 16:53:00,46.3,37.8,30.37,SSE,157,8.0,11.0,72,0.00,,,0.00,Wunderground v.1.15,2013-04-15 20:53:00,
2013-04-15 16:58:00,46.0,38.5,30.36,SE,131,8.0,11.0,75,0.00,,,0.00,Wunderground v.1.15,2013-04-15 20:58:00,
2013-04-15 17:03:00,45.7,38.9,30.36,SE,140,7.0,8.0,77,0.00,,,0.00,Wunderground v.1.15,2013-04-15 21:03:00,
2013-04-15 17:08:00,45.4,38.6,30.36,SE,126,7.0,9.0,77,0.00,,,0.00,Wunderground v.1.15,2013-04-15 21:08:00,
2013-04-15 17:14:00,44.9,38.5,30.36,SSE,163,7.0,8.0,78,0.00,,,0.00,Wunderground v.1.15,2013-04-15 21:14:00,
2013-04-15 17:20:00,44.7,39.2,30.37,SE,124,6.0,6.0,81,0.00,,,0.00,Wunderground v.1.15,2013-04-15 21:20:00,
2013-04-15 17:25:00,44.3,38.5,30.37,ESE,123,6.0,10.0,80,0.00,,,0.00,Wunderground v.1.15,2013-04-15 21:25:00,
2013-04-15 17:30:00,44.0,38.9,30.37,ESE,120,7.0,7.0,82,0.00,,,0.00,Wunderground v.1.15,2013-04-15 21:30:00,
2013-04-15 17:35:00,44.0,38.9,30.37,SE,142,6.0,10.0,82,0.00,,,0.00,Wunderground v.1.15,2013-04-15 21:35:00,
2013-04-15 17:41:00,44.0,38.9,30.37,SE,143,5.0,10.0,82,0.00,,,0.00,Wunderground v.1.15,2013-04-15 21:41:00,
2013-04-15 17:47:00,43.7,38.9,30.38,South,184,6.0,10.0,83,0.00,,,0.00,Wunderground v.1.15,2013-04-15 21:47:00,
2013-04-15 17:52:00,43.5,39.0,30.38,SSE,147,7.0,7.0,84,0.00,,,0.00,Wunderground v.1.15,2013-04-15 21:52:00,
2013-04-15 17:57:00,43.7,39.2,30.38,SE,142,6.0,9.0,84,0.00,,,0.00,Wunderground v.1.15,2013-04-15 21:57:00,
2013-04-15 18:03:00,43.9,39.4,30.38,South,182,5.0,6.0,84,0.00,,,0.00,Wunderground v.1.15,2013-04-15 22:03:00,
2013-04-15 18:08:00,44.0,39.5,30.38,ESE,111,4.0,6.0,84,0.00,,,0.00,Wunderground v.1.15,2013-04-15 22:08:00,
2013-04-15 18:13:00,43.8,39.0,30.38,SSE,163,5.0,8.0,83,0.00,,,0.00,Wunderground v.1.15,2013-04-15 22:13:00,
2013-04-15 18:19:00,43.7,39.2,30.38,SSE,148,5.0,8.0,84,0.00,,,0.00,Wunderground v.1.15,2013-04-15 22:19:00,
2013-04-15 18:24:00,43.6,39.4,30.38,SW,221,4.0,5.0,85,0.00,,,0.00,Wunderground v.1.15,2013-04-15 22:24:00,
2013-04-15 18:30:00,43.4,39.2,30.38,South,191,4.0,4.0,85,0.00,,,0.00,Wunderground v.1.15,2013-04-15 22:30:00,
2013-04-15 18:35:00,43.1,39.2,30.38,South,190,5.0,6.0,86,0.00,,,0.00,Wunderground v.1.15,2013-04-15 22:35:00,
2013-04-15 18:40:00,42.7,39.1,30.38,SSW,198,5.0,5.0,87,0.00,,,0.00,Wunderground v.1.15,2013-04-15 22:40:00,
2013-04-15 18:46:00,42.4,38.8,30.39,South,169,5.0,8.0,87,0.00,,,0.00,Wunderground v.1.15,2013-04-15 22:46:00,
2013-04-15 18:51:00,42.0,38.4,30.39,SE,146,5.0,7.0,87,0.00,,,0.00,Wunderground v.1.15,2013-04-15 22:51:00,
2013-04-15 18:56:00,41.7,38.4,30.40,SSE,155,5.0,7.0,88,0.00,,,0.00,Wunderground v.1.15,2013-04-15 22:56:00,
2013-04-15 19:01:00,41.4,38.1,30.40,SE,126,4.0,4.0,88,0.00,,,0.00,Wunderground v.1.15,2013-04-15 23:01:00,
2013-04-15 19:07:00,41.1,38.1,30.40,South,169,4.0,5.0,89,0.00,,,0.00,Wunderground v.1.15,2013-04-15 23:07:00,
2013-04-15 19:13:00,40.8,38.1,30.40,SSE,159,3.0,5.0,90,0.00,,,0.00,Wunderground v.1.15,2013-04-15 23:13:00,
2013-04-15 19:18:00,40.6,37.9,30.40,South,170,3.0,5.0,90,0.00,,,0.00,Wunderground v.1.15,2013-04-15 23:18:00,
2013-04-15 19:24:00,40.3,37.9,30.41,SE,142,4.0,4.0,91,0.00,,,0.00,Wunderground v.1.15,2013-04-15 23:24:00,
2013-04-15 19:29:00,40.0,37.9,30.41,ESE,107,4.0,5.0,92,0.00,,,0.00,Wunderground v.1.15,2013-04-15 23:29:00,
2013-04-15 19:34:00,39.9,37.8,30.41,SE,131,3.0,4.0,92,0.00,,,0.00,Wunderground v.1.15,2013-04-15 23:34:00,
2013-04-15 19:40:00,39.9,38.0,30.41,SE,144,3.0,3.0,93,0.00,,,0.00,Wunderground v.1.15,2013-04-15 23:40:00,
2013-04-15 19:45:00,39.9,38.0,30.42,SSE,166,3.0,5.0,93,0.00,,,0.00,Wunderground v.1.15,2013-04-15 23:45:00,
2013-04-15 19:50:00,40.0,38.1,30.42,SE,134,2.0,2.0,93,0.00,,,0.00,Wunderground v.1.15,2013-04-15 23:50:00,
2013-04-15 19:56:00,40.1,38.2,30.42,South,181,2.0,5.0,93,0.00,,,0.00,Wunderground v.1.15,2013-04-15 23:56:00,
2013-04-15 20:01:00,40.2,38.3,30.42,South,184,2.0,4.0,93,0.00,,,0.00,Wunderground v.1.15,2013-04-16 00:01:00,
2013-04-15 20:07:00,40.2,38.1,30.43,South,179,3.0,4.0,92,0.00,,,0.00,Wunderground v.1.15,2013-04-16 00:07:00,
2013-04-15 20:13:00,40.2,38.1,30.43,South,178,3.0,7.0,92,0.00,,,0.00,Wunderground v.1.15,2013-04-16 00:13:00,
2013-04-15 20:18:00,40.2,38.1,30.43,South,186,4.0,7.0,92,0.00,,,0.00,Wunderground v.1.15,2013-04-16 00:18:00,
2013-04-15 20:23:00,40.2,38.1,30.43,South,182,4.0,4.0,92,0.00,,,0.00,Wunderground v.1.15,2013-04-16 00:23:00,
2013-04-15 20:29:00,40.2,38.1,30.43,SSW,192,4.0,4.0,92,0.00,,,0.00,Wunderground v.1.15,2013-04-16 00:29:00,
2013-04-15 20:34:00,40.2,38.3,30.43,SSW,201,3.0,5.0,93,0.00,,,0.00,Wunderground v.1.15,2013-04-16 00:34:00,
2013-04-15 20:39:00,40.2,38.3,30.43,South,171,3.0,5.0,93,0.00,,,0.00,Wunderground v.1.15,2013-04-16 00:39:00,
2013-04-15 20:44:00,40.2,38.3,30.44,South,173,4.0,4.0,93,0.00,,,0.00,Wunderground v.1.15,2013-04-16 00:44:00,
2013-04-15 20:49:00,40.2,38.3,30.44,South,178,4.0,5.0,93,0.00,,,0.00,Wunderground v.1.15,2013-04-16 00:49:00,
2013-04-15 20:55:00,40.3,38.4,30.44,South,170,4.0,5.0,93,0.00,,,0.00,Wunderground v.1.15,2013-04-16 00:55:00,
2013-04-15 21:00:00,40.4,38.5,30.43,SE,146,3.0,3.0,93,0.00,,,0.00,Wunderground v.1.15,2013-04-16 01:00:00,
2013-04-15 21:05:00,40.4,38.5,30.43,SE,143,4.0,9.0,93,0.00,,,0.00,Wunderground v.1.15,2013-04-16 01:05:00,
2013-04-15 21:10:00,40.3,38.4,30.42,SSE,158,4.0,4.0,93,0.00,,,0.00,Wunderground v.1.15,2013-04-16 01:10:00,
2013-04-15 21:16:00,40.2,38.3,30.41,South,169,3.0,4.0,93,0.00,,,0.00,Wunderground v.1.15,2013-04-16 01:16:00,
2013-04-15 21:21:00,40.1,38.2,30.41,South,173,3.0,5.0,93,0.00,,,0.00,Wunderground v.1.15,2013-04-16 01:21:00,
2013-04-15 21:27:00,40.0,38.1,30.41,South,184,4.0,6.0,93,0.00,,,0.00,Wunderground v.1.15,2013-04-16 01:27:00,
2013-04-15 21:32:00,40.1,38.2,30.41,South,185,4.0,6.0,93,0.00,,,0.00,Wunderground v.1.15,2013-04-16 01:32:00,
2013-04-15 21:37:00,40.0,38.4,30.41,SSE,158,3.0,6.0,94,0.00,,,0.00,Wunderground v.1.15,2013-04-16 01:37:00,
2013-04-15 21:43:00,40.0,38.4,30.41,South,181,1.0,3.0,94,0.00,,,0.00,Wunderground v.1.15,2013-04-16 01:43:00,
2013-04-15 21:49:00,40.0,38.4,30.42,South,173,1.0,3.0,94,0.00,,,0.00,Wunderground v.1.15,2013-04-16 01:49:00,
2013-04-15 21:54:00,40.0,38.4,30.42,South,169,1.0,3.0,94,0.00,,,0.00,Wunderground v.1.15,2013-04-16 01:54:00,
2013-04-15 22:00:00,40.1,38.5,30.42,SSW,192,2.0,2.0,94,0.00,,,0.00,Wunderground v.1.15,2013-04-16 02:00:00,
2013-04-15 22:05:00,40.1,38.5,30.42,SSW,192,2.0,3.0,94,0.00,,,0.00,Wunderground v.1.15,2013-04-16 02:05:00,
2013-04-15 22:10:00,40.1,38.5,30.42,SSW,194,2.0,2.0,94,0.00,,,0.00,Wunderground v.1.15,2013-04-16 02:10:00,
2013-04-15 22:16:00,40.1,38.8,30.42,South,171,3.0,3.0,95,0.00,,,0.00,Wunderground v.1.15,2013-04-16 02:16:00,
2013-04-15 22:22:00,40.2,38.9,30.42,South,176,2.0,4.0,95,0.00,,,0.00,Wunderground v.1.15,2013-04-16 02:22:00,
2013-04-15 22:27:00,40.2,38.9,30.41,SSE,165,2.0,4.0,95,0.00,,,0.00,Wunderground v.1.15,2013-04-16 02:27:00,
2013-04-15 22:32:00,40.3,39.0,30.41,South,184,3.0,5.0,95,0.00,,,0.00,Wunderground v.1.15,2013-04-16 02:32:00,
2013-04-15 22:37:00,40.3,39.0,30.41,South,174,3.0,5.0,95,0.00,,,0.00,Wunderground v.1.15,2013-04-16 02:37:00,
2013-04-15 22:43:00,40.4,39.1,30.41,South,174,3.0,5.0,95,0.00,,,0.00,Wunderground v.1.15,2013-04-16 02:43:00,
2013-04-15 22:49:00,40.4,39.1,30.41,South,180,3.0,5.0,95,0.00,,,0.00,Wunderground v.1.15,2013-04-16 02:49:00,
2013-04-15 22:54:00,40.5,39.2,30.42,South,180,2.0,3.0,95,0.00,,,0.00,Wunderground v.1.15,2013-04-16 02:54:00,
2013-04-15 22:59:00,40.6,39.3,30.42,South,190,2.0,3.0,95,0.00,,,0.00,Wunderground v.1.15,2013-04-16 02:59:00,
2013-04-15 23:04:00,40.6,39.3,30.41,South,184,2.0,3.0,95,0.00,,,0.00,Wunderground v.1.15,2013-04-16 03:04:00,
2013-04-15 23:10:00,40.7,39.4,30.41,South,173,2.0,2.0,95,0.00,,,0.00,Wunderground v.1.15,2013-04-16 03:10:00,
2013-04-15 23:15:00,40.7,39.4,30.42,South,173,1.0,2.0,95,0.00,,,0.00,Wunderground v.1.15,2013-04-16 03:15:00,
2013-04-15 23:20:00,40.7,39.4,30.42,South,173,0.0,1.0,95,0.00,,,0.00,Wunderground v.1.15,2013-04-16 03:20:00,